STARLINK-34952, 65197

Orbit data source: Space-Track

STARLINK-34952, 65197 is a payload satellite owned by SpaceX/Seattle (US) in SSO that was launched on Thu, 14 Aug 2025 UTC via an FALCON 9 launch vehicle from the Air Force Western Test Range (AFWTR). Payload-class satellites include a variety of spacecraft equipped with specific instruments for various scientific and technological missions. These include communications satellites like Starlink; space stations such as the ISS; scientific satellites like the Hubble; Earth observation satellites from companies like Planet Labs, Umbra, and HawkEye 360; GPS; miniature CubeSats for education and research; and military/defense satellites.

Loading next visibility...
Identifier
65197, 2025-175Z
Orbit
SSO
Country
Flag of USUS
Related business
Manufacturer
SpaceX/Seattle
Mission
Operational Commercial Communications
Bus & Motor
STARLINK V2MO, Unknown motor
Mass
575 kg wet, ~530 kg dry
Launch date (UTC)
2025-08-14 (10 months ago)
Launch vehicle
FALCON 9
Launch site
Air Force Western Test Range (AFWTR)
Object type
Payload
Rocket body
Debris
Shape & HBR
Box + 2 Pan, 17.7 m
Radar Cross Section
36.964 m², Large (>1 m²)

Expand to show TLE details & history
Last TLE update: 12 hours ago

TLE from 12 hours ago
0 STARLINK-34952
1 65197U 25175Z   26171.36364736  .00009713  00000-0  67603-3 0  9998
2 65197  97.3385  42.8215 0002803  82.5569 277.5977 15.05659280 48091
Epoch: 2026-06-20T08:43Z
TLE epoch observation values (Epoch: 2026-06-20T08:43:39.131Z)
Latitude
-0.00004°
Longitude
3.32912°
Altitude
552.299 km
Speed
7.586 km/s
True Right ascension
02h 51m 17s
True Declination
0° 00' 00"
Sunlit
Object was in daylight at epoch
Visualization orbit readout
Latitude
Unknown
Longitude
Unknown
Altitude
Unknown
Speed
Unknown
Apparent Right ascension
Unknown
Apparent Declination
Unknown
Sunlit
N/A
Visualization observer readout
Local Sidereal Time
07:12:16
Azimuth
Unknown
Elevation
Unknown
Doppler factor
Unknown
Orbital elements
Apogee altitude
548.406 km
Perigee altitude
544.524 km
Semi-major axis
6,924.602 km
Eccentricity
0.00028
Inclination
97.3385°
RAAN
42.8215°
Arg. of periapsis
82.5569°
True anomaly
277.56586°
Mean anomaly
277.5977°
Eccentric anomaly
277.58178°
Mean motion
3.76661 °/min
Orbital period
95.58 mins
BSTAR
0.00067603
Loading maneuver chart data...
Computing Atmospheric mass density...
Loading historical data...
Loading historical data...
Loading historical data...
Loading historical data...
Loading historical data...
Loading historical data...
Loading historical data...

Documentation

Showing up to 5 results
|